DMSP 5D-2 F13 DEB, 40449

Orbit data source: Space-Track

DMSP 5D-2 F13 DEB, 40449 is space debris in SSO originally from a launch on Fri, 24 Mar 1995 UTC launched from the Air Force Western Test Range (AFWTR). Debris objects in space refer to the collection of defunct objects orbiting the Earth. Examples of debris include non-operational satellites, rocket bodies, and fragments generated from explosions, collisions, or faulty payload assembly.

Loading next visibility...
Identifier
40449, 1995-015BB
Orbit
SSO
Country
Flag of USUS
Related business
Manufacturer
Unknown
Mission
Spacecraft
Bus & Motor
Unknown
Mass
Unknown
Launch date (UTC)
1995-03-24 (31 years ago)
Launch vehicle
Unknown
Launch site
Air Force Western Test Range (AFWTR)
Object type
Payload
Rocket body
Debris
Shape & HBR
Unknown shape, 0.1 m
Radar Cross Section
Small (<0.1 m²)

Expand to show TLE details & history
Last TLE update: 3 days ago

TLE from 3 days ago
0 DMSP 5D-2 F13 DEB
1 40449U 95015BB  26059.53842111  .00004547  00000-0  16925-2 0  9993
2 40449  98.9272  72.7018 0022747 213.5748 146.3994 14.32410929568030
Epoch: 2026-02-28T12:55Z
TLE epoch observation values (Epoch: 2026-02-28T12:55:19.583Z)
Latitude
-0.00007°
Longitude
80.51112°
Altitude
800.191 km
Speed
7.446 km/s
True Right ascension
04h 50m 48s
True Declination
0° 00' 00"
Sunlit
Object was in daylight at epoch
Visualization orbit readout
Latitude
Unknown
Longitude
Unknown
Altitude
Unknown
Speed
Unknown
Apparent Right ascension
Unknown
Apparent Declination
Unknown
Sunlit
N/A
Visualization observer readout
Local Sidereal Time
06:31:07
Azimuth
Unknown
Elevation
Unknown
Doppler factor
Unknown
Orbital elements
Apogee altitude
797.12 km
Perigee altitude
764.551 km
Semi-major axis
7,158.973 km
Eccentricity
0.00227
Inclination
98.9272°
RAAN
72.7018°
Arg. of periapsis
213.5748°
True anomaly
146.54331°
Mean anomaly
146.3994°
Eccentric anomaly
146.47139°
Mean motion
3.58317 °/min
Orbital period
100.47 mins
BSTAR
0.0016925
Loading maneuver chart data...
Computing Atmospheric mass density...

Documentation

Showing up to 5 results
|